Location: Adamstown South Public School
(32.9318°S, 151.7012°E)
Time: 16:58:27
(UTC+00:00)

BREEZE-M DEB (TANK) - Pass Details

Date: 07 June 2020
Orbit: 397 x 14925 km, 45.9° (Epoch: 05 July)

Event Time Altitude Azimuth Distance (km) Brightness Sun altitude
Rises 08:33:04 0° 231° (SW) 2,348 6.6 -20.4°
Reaches altitude 10° 08:34:37 10° 227° (SW) 1,591 5.6 -20.7°
Maximum altitude 08:37:35 65° 144° (SE) 702 3.0 -21.3°
Enters shadow 08:38:31 50° 88° (E) 913 3.5 -21.5°
